{"data":{"norad_id":62416,"epoch":"2026-09-20T22:36:25.214400Z","epoch_age_seconds":136343,"freshness":"FRESH","line1":"1 62416U 24249H   26263.94195850  .00129681  00000+0  99169-3 0  9993","line2":"2 62416  43.0001  70.2992 0001998 280.8055  79.2588 15.71000915100192","mean_motion":15.71000915,"eccentricity":0.0001998,"inclination_deg":43.0001,"raan_deg":70.2992,"arg_perigee_deg":280.8055,"mean_anomaly_deg":79.2588,"bstar":0.00099169,"rev_number":10019,"period_min":91.661308803248,"perigee_km":354.68968804037,"apogee_km":357.38066324176,"semimajor_km":6734.1721756411,"source":"CELESTRAK","updated_at":"2026-09-22T09:00:49.576726Z"}}